DW7214 Weather Reports


time (UTC)temp
C
wind
direction
speed
KPH
gust
KPH
rain 1hr
cm
rain 24hr
cm
rain mn
cm
humidity
%
barometer
mb
20260504171508 15 67 1.6 8.0 0.00 0.00 0.00 81 1014.5
20260504081526 13 46 1.6 6.4 0.00 0.00 0.00 81 1009.6
20260504050024 17 244 0.0 3.2 0.00 0.00 0.00 68 1008.5
20260504044535 18 172 0.0 3.2 0.00 0.00 0.00 62 1008.5
20260504043023 20 225 0.0 3.2 0.00 0.00 0.00 60 1008.1
20260504041525 21 321 1.6 3.2 0.00 0.00 0.00 54 1007.8
20260504040028 22 263 1.6 6.4 0.00 0.00 0.00 48 1007.6
20260504034534 22 292 3.2 8.0 0.00 0.00 0.00 47 1007.5
20260504033020 23 240 3.2 6.4 0.00 0.00 0.00 47 1007.4
20260504031522 23 242 4.8 8.0 0.00 0.00 0.00 46 1007.3
20260504030039 25 231 3.2 6.4 0.00 0.00 0.00 48 1007.2
20260504024528 26 228 1.6 3.2 0.00 0.00 0.00 50 1007.2
20260504023027 28 198 0.0 3.2 0.00 0.00 0.00 42 1007.2
20260504021522 30 192 0.0 3.2 0.00 0.00 0.00 37 1007.1
20260504020024 31 194 0.0 3.2 0.00 0.00 0.00 36 1007.2
20260504014536 31 223 0.0 3.2 0.00 0.00 0.00 33 1007.3
20260504013032 31 285 1.6 4.8 0.00 0.00 0.00 28 1007.3
20260504011526 31 297 1.6 4.8 0.00 0.00 0.00 28 1007.4
20260504010023 31 5 1.6 8.0 0.00 0.00 0.00 25 1007.5
20260504004531 31 330 3.2 9.7 0.00 0.00 0.00 26 1007.7
20260504003033 31 294 3.2 8.0 0.00 0.00 0.00 26 1007.9
20260504001528 31 302 3.2 12.9 0.00 0.00 0.00 30 1007.9
20260504000024 31 286 4.8 12.9 0.00 0.00 0.00 28 1007.8
20260503234537 31 277 4.8 11.3 0.00 0.00 0.00 28 1007.9
20260503233026 31 319 1.6 12.9 0.00 0.00 0.00 28 1008.0
20260503231533 31 287 4.8 12.9 0.00 0.00 0.00 28 1008.2
20260503230026 31 282 4.8 11.3 0.00 0.00 0.00 29 1008.4
20260503224526 31 312 3.2 9.7 0.00 0.00 0.00 29 1008.7
20260503223009 31 315 3.2 12.9 0.00 0.00 0.00 28 1009.0
20260503221515 31 313 3.2 12.9 0.00 0.00 0.00 33 1009.2
20260503220020 30 241 3.2 11.3 0.00 0.00 0.00 33 1009.5
20260503214526 30 9 3.2 11.3 0.00 0.00 0.00 36 1009.8
20260503213024 30 306 4.8 11.3 0.00 0.00 0.00 35 1009.9
20260503211512 30 350 4.8 12.9 0.00 0.00 0.00 36 1010.0
20260503210025 30 235 3.2 9.7 0.00 0.00 0.00 35 1010.1
20260503204533 29 332 3.2 11.3 0.00 0.00 0.00 37 1010.3
20260503203025 29 311 4.8 12.9 0.00 0.00 0.00 37 1010.4
20260503201526 28 336 6.4 9.7 0.00 0.00 0.00 38 1010.6
20260503200016 28 337 3.2 9.7 0.00 0.00 0.00 37 1010.8
20260503194523 28 288 4.8 14.5 0.00 0.00 0.00 38 1011.0
20260503193032 27 304 4.8 14.5 0.00 0.00 0.00 39 1011.2
20260503191526 27 338 4.8 14.5 0.00 0.00 0.00 40 1011.3
20260503190013 26 347 6.4 16.1 0.00 0.00 0.00 42 1011.5
20260503184532 26 331 8.0 14.5 0.00 0.00 0.00 44 1011.6
20260503183024 26 277 6.4 12.9 0.00 0.00 0.00 46 1011.7
20260503181526 25 352 4.8 14.5 0.00 0.00 0.00 49 1011.7
20260503180031 25 334 6.4 12.9 0.00 0.00 0.00 52 1011.8
20260503174515 24 289 4.8 12.9 0.00 0.00 0.00 53 1012.0
20260503173039 23 296 4.8 14.5 0.00 0.00 0.00 56 1011.9